Regional Weather Roundup
Issued by NWS

Home | Current Version | Previous Version | Text Only | Print | Product List | Glossary Off
Versions: 1 2 3 4 5 6 7 8 9 10 11 12 13 14 15 16 17 18 19 20 21 22 23 24 25 26 27 28 29 30 31 32 33 34 35 36 37 38 39 40 41 42 43 44 45 46 47 48 49 50

000
ASUS43 KMKX 212111
RWRWI

WISCONSIN REGIONAL WEATHER ROUNDUP
NATIONAL WEATHER SERVICE MILWAUKEE/SULLIVAN WI
300 PM CST SUN DEC 21 2014

NOTE: "FAIR" INDICATES FEW OR NO CLOUDS BELOW 12,000 FEET WITH NO
SIGNIFICANT WEATHER AND/OR OBSTRUCTIONS TO VISIBILITY.

WIZ001-002-006>008-014>016-023>028-212200-
NORTHWEST WISCONSIN

CITY           SKY/WX    TMP DP  RH WIND       PRES   REMARKS
SUPERIOR ARPT  CLOUDY    32  32  99 E5        29.79S FOG     WCI  28
ASHLAND        LGT SNOW  33  32  96 SE5       29.82F FOG     WCI  29
HAYWARD        LGT SNOW  33  31  92 SE7       29.79F FOG     WCI  27
SIREN          LGT SNOW  33  32  96 SE7       29.77S WCI  27
CUMBERLAND     LGT SNOW  32  32 100 SE9       29.78S VSB 3/4 WCI  24
RICE LAKE      LGT SNOW  33  32  96 SE10      29.81F WCI  25
CHETEK         LGT SNOW  33  32  98 SE8       29.81F WCI  25
LADYSMITH      LGT SNOW  34  33  95 SE7       29.84F WCI  28
EAU CLAIRE     CLOUDY    35  33  92 S12       29.82F FOG     WCI  27
MENOMONIE      LGT RAIN  36  35  98 SE8       29.81F WCI  29
NEW RICHMOND   MIX PCPN  33  33 100 S10       29.77F WCI  25
OSCEOLA        LGT RAIN  34  34 100 SE9       29.79F WCI  27
$$

WIZ003>005-009-010-017-018-212200-
NORTH CENTRAL WISCONSIN

CITY           SKY/WX    TMP DP  RH WIND       PRES   REMARKS
MANITOWISH WTR LGT SNOW  31  31 100 S13       29.84S WCI  21
ARBOR VITAE    LGT SNOW  33  31  93 S10G17    29.86S VSB 1   WCI  25
WOODRUFF       LGT SNOW  33  31  93 S10G17    29.86S VSB 1   WCI  25
RHINELANDER    LGT SNOW  31  30  96 S8        29.88F FOG     WCI  23
EAGLE RIVER    LGT SNOW  31  31 100 S6        29.88S VSB 1   WCI  25
LAND O LAKES   LGT SNOW  32  31  94 S7        29.88F WCI  26
PHILLIPS       LGT SNOW  32  31  94 S10       29.83F WCI  24
TOMAHAWK       LGT SNOW  32  30  94 CALM      29.88F VSB 1
MEDFORD        LGT SNOW  32  32  99 SE10G16   29.85F WCI  24
MERRILL        LGT SNOW  32  32 100 S7        29.89F VSB 3/4 WCI  26
$$

WIZ029-030-035-036-043>047-212200-
CENTRAL WISCONSIN

CITY           SKY/WX    TMP DP  RH WIND       PRES   REMARKS
WAUSAU         LGT SNOW  34  32  92 S13       29.90S FOG     WCI  25
MOSINEE        CLOUDY    34  34 100 S10G17    29.92S FOG     WCI  26
MARSHFIELD     LGT SNOW  34  32  92 S17       29.89S VSB 3/4 WCI  23
STEVENS POINT  CLOUDY    32  31  96 S10       29.94S FOG     WCI  24
WAUPACA        CLOUDY    37  32  83 SE9G16    29.98S HAZE    WCI  30
WAUTOMA        CLOUDY    36  33  88 S12       29.97F FOG     WCI  28
WISC RAPIDS    CLOUDY    35  31  85 S7        29.94S FOG     WCI  29
CAMP DOUGLAS   CLOUDY    37  37 100 S9        29.91S WCI  31
$$

WIZ011>013-019>022-031-037>040-048>050-212200-
NORTHEAST WISCONSIN

CITY           SKY/WX    TMP DP  RH WIND       PRES   REMARKS
ANTIGO         LGT SNOW  31  31 100 S13       29.92F WCI  21
SHAWANO        CLOUDY    36  32  85 S6        29.99S FOG     WCI  31
OCONTO         CLOUDY    35  33  93 S5        30.01S WCI  31
STURGEON BAY   CLOUDY    36  32  87 S12       30.04S WCI  27
GREEN BAY      CLOUDY    35  32  88 S9        30.01F FOG     WCI  28
MANITOWOC      CLOUDY    37  34  89 S17G23    30.05R WCI  27
APPLETON       CLOUDY    34  34 100 S12       30.00F FOG     WCI  25
CLINTONVILLE   CLOUDY    34  32  93 S10       29.98F FOG     WCI  26
OSHKOSH        CLOUDY    35  31  85 S8        30.00F FOG     WCI  29
$$

WIZ032>034-041-042-053>061-212200-
SOUTHWEST WISCONSIN

CITY           SKY/WX    TMP DP  RH WIND       PRES   REMARKS
LA CROSSE      CLOUDY    39  35  86 S13       29.87S WCI  31
SPARTA         CLOUDY    37  33  84 S10       29.90F FOG     WCI  30
VIROQUA        CLOUDY    36  36 100 S14       29.87S WCI  27
BOSCOBEL       CLOUDY    39  34  82 S7        29.94S HAZE    WCI  34
PRAIRIE DU CHI CLOUDY    38  33  82 SE9G16    29.91S HAZE    WCI  32
PLATTEVILLE    CLOUDY    37  34  91 S14       29.95F WCI  28
$$

WIZ056-057-062-063-064-067-068-212200-
SOUTH CENTRAL WISCONSIN

CITY           SKY/WX    TMP DP  RH WIND       PRES   REMARKS
REEDSBURG      CLOUDY    36  32  88 S8        29.94S WCI  29
BARABOO/DELLS  CLOUDY    35  32  88 S9        29.94S FOG     WCI  28
LONE ROCK      CLOUDY    41  33  73 SE7       29.95F
MINERAL POINT  CLOUDY    37  34  87 S12G20    29.93F FOG     WCI  30
MADISON        CLOUDY    36  32  85 S12       29.98F WCI  28
MIDDLETON      CLOUDY    37  33  85 S13G20    29.97F WCI  29
WATERTOWN      CLOUDY    35  32  91 SE9       30.02S WCI  27
MONROE         CLOUDY    36  32  87 S15       29.97F WCI  26
JANESVILLE     CLOUDY    37  32  81 S12       30.02S WCI  30
$$

WIZ051-052-058>065-066-070>072-212200-
SOUTHEAST WISCONSIN

CITY           SKY/WX    TMP DP  RH WIND       PRES   REMARKS
MILWAUKEE      CLOUDY    37  29  72 S10       30.07S WCI  30
WAUKESHA       CLOUDY    34  30  86 S12       30.05F WCI  25
MILWAUKEE/TIMM CLOUDY    36  28  75 S9        30.06S WCI  29
RACINE         CLOUDY    36  29  75 S12       30.09R WCI  28
BURLINGTON     CLOUDY    34  29  82 S8        30.05S WCI  27
KENOSHA        CLOUDY    37  30  75 S10       30.07S WCI  30
FOND DU LAC    CLOUDY    35  30  82 S10       30.01S WCI  27
SHEBOYGAN      CLOUDY    35  31  85 S10       30.04S WCI  27
WEST BEND      CLOUDY    34  30  86 S7        30.04R WCI  28
JUNEAU         CLOUDY    34  31  90 SE12G17   30.02S WCI  25
$$

LSZ147-162-212200-
LAKE SUPERIOR

STATION/POSITION TIME  TEMP    WIND        PRES    WAVE
                       AIR SEA DIR/SP/G            HT/PER
                 (UTC) (F)     (DEG/KT/KT) (MB)    (FT/S)
DEVILS ISLAND    2100   33     130/  7/  8 1011.0F
PORT WING        2040   34      CALM  /  1 1009.8F
SAXON HARBOR     2000   36     170/  3/ 10 1010.5F
$$

LMZ867-665-643>646-212200-
LAKE MICHIGAN

STATION/POSITION TIME  TEMP    WIND        PRES    WAVE
                       AIR SEA DIR/SP/G            HT/PER
                 (UTC) (F)     (DEG/KT/KT) (MB)    (FT/S)
CHAMBERS ISLAND  2000   37     150/  7/ 14 1016.6F
NORTHPORT PIER   2000   37     160/  9/ 16 1017.3F
SISTER BAY       2043          160/ 17/ 23   N/A
ALGOMA LAKESHORE 2015          230/ 17/ 20   N/A
KEWAUNEE LAKESHO 2000   36     180/ 13/ 15 1016.4F
SHEBOYGAN LAKESH 2100   36 35  180/ 20/ 23 1018.3R
PORT WASHINGTON  2000   37     180/ 10/ 13 1018.6F
MILWAUKEE LAKESH 2000   36     190/ 14/ 17   N/A
KENOSHA   LAKESH 2100   36     170/ 14/ 16 1018.3S
$$

TC  - TEMPERATURE IN CELSIUS
VSB - VISIBILITY IN STATUTE MILES
WCI - WIND CHILL INDEX
HX  - HEAT INDEX



USA.gov is the U.S. government's official web portal to all federal, state and local government web resources and services.